Regional Weather Roundup
Issued by NWS

Home | Current Version | Previous Version | Text Only | Print | Product List | Glossary On
Versions: 1 2 3 4 5 6 7 8 9 10 11 12 13 14 15 16 17 18 19 20 21 22 23 24 25 26 27 28 29 30 31 32 33 34 35 36 37 38 39 40 41 42 43 44 45 46 47 48 49 50
000
ASUS42 KFFC 251010
RWRGA
WEATHER ROUNDUP FOR GEORGIA
NATIONAL WEATHER SERVICE PEACHTREE CITY GA
500 AM EST SAT FEB 25 2017

NOTE: "FAIR" INDICATES FEW OR NO CLOUDS BELOW 12,000 FEET WITH NO
SIGNIFICANT WEATHER AND/OR OBSTRUCTIONS TO VISIBILITY.

* = USE WITH CAUTION. THE STATIONS MARKED WITH AN ASTERISK MAY NOT
REPORT WEATHER SUCH AS PRECIPITATION, FOG, OR THUNDER AND ARE NOT
QUALITY CONTROLLED BY NWS.

THE REMARK "TC" DENOTES TEMPERATURE READING IN DEGREES CELSIUS.

GAZ001>058-251100-
NORTH GEORGIA

CITY           SKY/WX    TMP DP  RH WIND       PRES   REMARKS
ATLANTA        PTCLDY    62  58  86 SW8       29.75F
ATHENS         CLEAR     58  54  86 S5        29.75F
CHAMBLEE       PTCLDY    62  56  80 SW9       29.74F
PEACHTREE CITY CLEAR     61  57  87 VRB5      29.77F
ROME           TSTM      62  57  83 SW6G17    29.73R
WEST ATLANTA   PTCLDY    62  56  80 SW6       29.75S
GAINESVILLE    PTCLDY    62  56  80 SW8       29.74F
CARTERSVILLE   CLOUDY    65  58  78 VRB5      29.74R


CITY           SKY/WX    TMP DP  RH WIND       PRES   REMARKS
DALTON*        LGT RAIN  61  61 100 CALM      29.73S
MARIETTA       PTCLDY    61  56  83 SW8       29.75S
CANTON*        CLOUDY    63  52  67 SW7       29.75R
$$

GAZ059>098-102>109-251100-
CENTRAL GEORGIA

CITY           SKY/WX    TMP DP  RH WIND       PRES   REMARKS
AUGUSTA-BUSH   PTCLDY    62  59  90 S3        29.78S
AUGUSTA-DANIEL MOCLDY    63  58  83 S8        29.79S
COLUMBUS       PTCLDY    59  57  93 W5        29.79S
MACON          PTCLDY    62  56  80 SW3       29.79S
ROBINS AFB     PTCLDY    61  56  85 S5        29.78F


CITY           SKY/WX    TMP DP  RH WIND       PRES   REMARKS
LAGRANGE*      PTCLDY    64  64 100 W7        29.78S
SYLVANIA*      MOCLDY   N/A N/A N/A CALM      29.81R FOG
MILLEDGEVILLE* PTCLDY    59  59 100 CALM      29.78S
$$

GAZ099>101-110>166-251100-
SOUTH GEORGIA

CITY           SKY/WX    TMP DP  RH WIND       PRES   REMARKS
SAVANNAH       CLOUDY    62  60  93 SW3       29.81R FOG
VALDOSTA       MOCLDY    63  61  93 VRB5      29.84R
ALMA           CLOUDY    61  61 100 SW3       29.83R
ST SIMONS      FOG       63  63 100 SW6       29.80S VSB 1/4
FT STEWART     CLOUDY    61  61 100 CALM      29.80R FOG
ALBANY         MOCLDY    62  61  96 W8        29.84S
HUNTER AFB     FOG       63  63 100 CALM      29.79R VSB 3/4
MOODY AFB      MOCLDY    63  59  87 SW6       29.83R
BRUNSWICK      FOG       63  63 100 SW7       29.82R VSB 1/2


CITY           SKY/WX    TMP DP  RH WIND       PRES   REMARKS
BAINBRIDGE*    CLOUDY    63  61  94 W6        29.84S
MOULTRIE*      MOCLDY    59  59 100 CALM      29.85R
VIDALIA*       CLOUDY    63  63 100 SW5       29.82R
WAYCROSS*      CLOUDY    64  64 100 W3        29.83R
DOUGLAS*       CLOUDY    63  59  88 SW3       29.85R
$$




USA.gov is the U.S. government's official web portal to all federal, state and local government web resources and services.